SCP
-0 0 -0 -0 0 -0 -0 0 0 0 0 0 0 0 0 0 0 0 0 -0 -0 0 -0 -0 -0 -0 -0 0 0 0 0 0 0 0 0 0 0 0 0 0 0 -0 -0
-0 -0 -0 -0 -0 -0 0 -0 0 -0 0 0 0 0 0 0 0 0 0 -0 -0 -0 -0 -0 -0 -0 -0 -0 -0 -0 0 0 0 0 0 0 0 0 0 -0 0 -0 -0
-0 -0 -0 -0 -0 0 0 0 -0 0 0 0 0 0 0 0 0 0 0 -0 0 0 -0 -0 -0 -0 -0 -0 -0 0 0 0 0 0 0 0 0 0 -0 -0 0 0 0
-0 -0 0 0 -0 0 -0 -0 0 0 0 0 0 0 0 0 0 0 0 0 0 -0 -0 -0 -0 -0 -0 -0 0 0 0 0 0 0 0 0 0 0 0 0 0 0 0
-0 -0 -0 -0 -0 -0 0 0 0 0 0 0 0 0 0 0 0 0 0 0 0 0 0 -0 -0 -0 -0 -0 -0 -0 0 0 0 0 0 0 0 0 0 0 0 0 0
-0 -0 -0 -0 -0 0 -0 0 0 0 0 0 0 0 0 0 0 0 0 0 0 0 -0 -0 -0 -0 -0 -0 -0 0 0 0 -0 -0 0 0 0 0 0 -0 -0 0 0
-0 -0 0 -0 -0 -0 0 0 0 0 0 0 0 0 0 0 0 0 0 0 0 0 -0 -0 -0 -0 -0 -0 -0 -0 0 -0 -0 -0 -0 -0 -0 -0 0 0 -0 0 0
-0 0 -0 0 -0 -0 0 0 0 0 0 0 -0 0 0 0 0 -0 -0 0 0 0 -0 0 0 0 0 -0 -0 -0 -0 -0 0 0 -0 -0 -0 -0 -0 0 0 0 0
-0 0 -0 -0 0 0 0 0 0 0 0 0 0 -0 -0 -0 -0 -0 -0 -0 -0 -0 0 0 0 0 0 0 -0 -0 -0 -0 -0 0 -0 -0 -0 -0 0 0 0 0 0
0 -0 -0 -0 0 0 0 0 0 0 0 0 0 -0 -0 -0 -0 -0 -0 -0 -0 -0 -0 -0 0 0 0 0 0 -0 -0 -0 -0 -0 -0 -0 -0 -0 -0 -0 -0 0 0
-0 -0 -0 -0 -0 0 0 0 -0 -0 -0 0 -0 -0 -0 -0 -0 -0 0 -0 -0 -0 -0 -0 -0 -0 0 -0 -0 -0 -0 -0 -0 -0 -0 -0 -0 -0 -0 -0 -0 -0 -0
0 0 0 0 0 0 0 0 0 0 -0 -0 -0 -0 0 0 -0 -0 -0 -0 -0 -0 -0 -0 -0 -0 0 0 0 -0 0 -0 -0 0 -0 -0 -0 -0 -0 -0 -0 -0 -0
-0 0 0 0 0 0 0 -0 -0 0 -0 -0 -0 -0 -0 -0 -0 -0 -0 0 0 -0 -0 0 -0 -0 0 0 0 0 0 -0 0 0 -0 -0 -0 -0 -0 -0 -0 -0 -0
-0 -0 -0 0 0 -0 0 0 -0 -0 0 -0 -0 -0 -0 -0 -0 -0 -0 -0 -0 -0 -0 -0 0 0 0 0 0 0 0 0 0 0 0 -0 -0 -0 -0 -0 -0 -0 -0
-0 0 -0 -0 -0 0 0 0 -0 0 -0 -0 0 -0 -0 -0 -0 -0 0 -0 -0 -0 -0 -0 -0 -0 0 -0 -0 0 -0 0 0 0 0 0 -0 -0 -0 -0 -0 -0 -0
-0 -0 -0 -0 0 0 0 -0 -0 0 0 -0 -0 -0 0 -0 0 0 0 -0 -0 -0 -0 -0 -0 -0 0 -0 -0 -0 0 0 0 0 0 0 0 -0 -0 -0 -0 -0 -0
-0 -0 -0 -0 -0 -0 -0 0 -0 0 0 0 0 0 -0 0 0 0 0 -0 -0 0 0 -0 -0 -0 -0 -0 -0 -0 -0 0 0 0 -0 0 0 0 -0 -0 -0 -0 -0
0 0 0 -0 -0 -0 0 0 0 0 0 -0 0 0 0 0 0 0 0 0 0 0 0 0 0 0 -0 -0 -0 -0 -0 -0 0 0 0 0 0 -0 0 0 -0 -0 -0
-0 -0 0 0 -0 -0 -0 0 0 0 0 0 0 0 0 -0 -0 -0 -0 -0 0 -0 0 0 -0 -0 0 0 0 -0 -0 -0 -0 -0 0 0 0 0 0 0 0 0 -0
-0 -0 -0 -0 -0 -0 -0 -0 -0 -0 -0 -0 -0 -0 -0 -0 -0 -0 -0 0 0 0 0 0 -0 0 -0 -0 0 0 -0 0 -0 -0 0 0 -0 0 0 0 0 0 0
-0 -0 -0 -0 -0 -0 -0 -0 -0 -0 -0 -0 -0 -0 0 0 0 0 0 0 0 0 0 1 0 0 0 0 0 0 0 0 0 -0 -0 -0 0 0 0 0 1 0 0
-0 -0 -0 -0 -0 -0 -0 -0 -0 -0 -0 -0 -0 0 0 0 0 0 0 0 0 0 0 1 1 0 0 1 0 0 0 0 0 0 -0 0 0 0 0 1 0 1 1
-0 -0 -0 -0 -0 -0 -0 -0 0 0 0 -0 0 0 0 0 0 0 0 0 0 1 0 1 1 1 0 1 1 1 0 0 0 1 1 1 1 1 1 1 1 1 1
-0 -0 -0 -0 -0 -0 -0 0 0 -0 0 -0 0 0 0 0 0 0 0 0 1 1 0 0 1 1 1 0 1 1 1 1 1 1 0 0 1 2 2 1 1 1 3
-0 -0 -0 -0 -0 -0 -0 0 0 0 0 0 0 0 1 0 0 -0 0 0 1 1 1 1 1 1 1 1 1 1 1 1 1 2 1 0 0 1 1 2 2 2 1
0 0 0 0 0 0 0 0 -0 -0 -0 -0 0 0 -0 0 0 1 1 1 1 1 1 1 1 1 1 2 1 1 2 2 2 2 1 1 0 0 0 0 1 1 2
Wind_Speed_500mb
35 41 48 51 55 60 62 63 57 55 54 54 56 53 46 41 41 41 39 38 35 38 40 38 36 33 32 30 33 37 32 33 32 31 31 31 33 36 39 37 30 18 21
38 41 49 55 56 61 64 56 51 51 53 55 53 46 39 33 34 35 35 33 34 34 33 31 35 30 28 29 32 34 32 35 37 36 32 32 30 28 28 31 29 22 22
37 42 46 54 62 62 57 53 58 60 59 55 49 40 36 35 35 35 31 31 32 32 30 30 33 36 33 35 31 31 34 49 48 42 41 24 25 28 27 22 17 23 21
38 43 48 61 59 55 56 58 60 56 50 45 40 39 37 35 35 32 28 28 29 29 30 31 34 34 33 31 29 28 34 38 33 25 24 23 16 25 23 21 21 21 19
39 42 52 58 62 55 58 56 55 49 45 43 43 40 36 34 34 30 29 28 25 27 30 33 35 34 34 30 27 26 37 41 37 30 25 24 14 17 23 24 21 20 24
40 44 51 57 55 58 54 50 49 46 49 47 46 43 39 37 34 30 29 25 24 26 30 30 34 32 31 27 25 26 34 34 32 19 27 17 17 13 17 21 13 13 12
47 49 54 51 50 51 48 44 43 46 46 43 40 38 35 34 33 31 28 25 26 24 30 30 26 22 22 22 20 21 26 30 23 17 15 11 11 13 11 12 15 13 12
52 48 42 55 58 42 45 40 38 38 37 34 35 33 31 31 29 28 28 26 22 22 25 23 20 19 17 18 19 22 24 26 21 16 15 8 12 11 12 11 9 12 13
44 46 46 51 61 44 51 37 33 35 33 27 26 26 28 28 27 28 26 25 21 15 15 15 14 14 13 14 19 22 25 30 21 14 11 5 14 10 10 9 7 6 7
43 43 44 47 67 62 43 33 33 23 19 11 13 18 20 26 26 26 24 20 19 15 12 11 10 9 10 13 13 18 23 19 11 7 14 9 12 9 7 6 6 4 5
43 49 49 49 57 59 49 45 26 12 8 1 6 15 25 16 11 19 14 16 17 16 14 8 3 5 7 14 12 11 13 6 11 3 6 13 12 9 8 6 3 2 2
34 43 43 47 53 46 47 31 28 14 3 5 7 19 11 5 11 9 18 22 19 21 18 20 20 5 4 5 7 5 16 7 7 4 9 14 11 10 10 8 6 3 2
40 40 38 46 36 44 40 31 26 17 16 4 5 11 9 5 6 7 12 16 17 16 14 16 20 13 4 7 5 11 10 7 9 12 14 19 16 10 9 8 8 7 6
38 37 36 35 38 30 36 29 21 17 7 1 5 7 10 5 11 2 3 3 14 7 12 2 3 10 8 8 12 14 11 13 17 18 15 19 20 13 13 11 8 9 10
39 35 29 32 25 28 22 13 5 7 3 5 13 9 5 2 5 4 6 5 7 6 4 6 9 8 13 10 12 15 17 18 18 17 21 24 23 21 20 15 15 13 12
35 34 32 31 30 34 25 20 24 18 14 12 6 17 20 9 12 8 7 5 12 19 13 7 9 12 14 13 16 18 19 21 20 21 21 28 26 29 28 26 23 21 17
34 32 29 28 28 28 23 19 18 16 14 15 12 17 20 14 15 14 9 11 6 14 22 15 15 11 14 15 18 20 23 27 29 30 23 27 27 34 35 29 31 32 27
32 32 28 27 27 25 22 20 17 16 13 14 14 15 17 19 17 15 14 14 19 17 18 19 20 19 19 20 25 24 22 24 30 29 31 33 33 25 35 38 40 38 38
34 33 31 28 25 24 22 17 16 15 15 16 17 18 19 19 18 18 16 18 29 18 22 21 20 25 25 27 22 24 27 26 29 30 34 37 39 41 36 37 43 45 49
35 33 33 30 29 27 23 22 18 17 16 15 15 16 19 17 19 19 16 21 32 28 25 23 26 27 29 29 30 32 38 34 33 33 35 35 37 42 38 39 41 45 44
35 35 34 33 32 30 27 24 21 18 19 18 18 17 21 20 21 25 23 24 25 29 34 36 36 33 30 27 28 29 33 28 33 38 35 35 36 37 40 43 47 42 38
37 37 37 36 35 31 27 25 24 19 18 20 20 19 22 24 25 27 32 29 28 33 33 37 37 33 34 30 36 34 32 30 34 32 23 26 33 36 41 46 42 48 48
40 41 38 36 34 33 32 25 25 24 25 27 25 17 22 25 25 35 31 34 38 38 37 42 39 39 37 35 39 39 24 33 29 17 27 31 32 35 34 37 38 44 50
41 37 38 36 35 32 28 26 26 22 19 23 27 12 24 26 25 30 31 33 34 37 40 41 43 42 42 40 40 45 50 47 37 37 40 38 36 44 48 45 49 49 47
38 39 39 40 39 35 32 28 25 19 13 9 9 14 20 20 28 25 21 24 30 30 35 40 41 43 48 51 47 46 45 46 46 55 57 65 47 48 55 55 53 44 42
38 38 37 39 38 35 34 29 24 29 21 11 7 8 11 16 18 18 18 23 42 40 37 39 42 44 46 48 51 55 55 53 46 44 49 67 58 54 47 51 54 55 55
Wind_Direction_500mb
119 122 125 127 127 127 127 127 124 124 125 125 125 123 118 108 102 103 106 104 100 104 106 105 101 99 96 90 90 94 100 100 104 106 103 101 102 103 99 94 77 106 103
121 125 132 130 129 128 128 127 125 124 122 122 122 120 112 106 103 106 107 100 98 100 99 104 105 106 110 102 103 103 96 93 89 84 86 95 104 112 104 111 135 104 99
127 131 136 132 129 132 130 126 124 121 118 117 116 113 107 104 103 107 104 101 101 103 101 100 96 100 99 98 98 92 93 94 89 86 87 82 99 103 112 123 104 95 102
131 136 136 133 131 129 128 125 124 122 116 114 111 108 104 101 103 108 101 98 103 99 100 103 103 103 101 101 98 97 96 96 85 81 109 89 88 93 97 96 93 90 87
129 136 137 137 135 129 131 122 123 119 114 111 109 105 100 99 97 100 97 97 96 97 102 107 104 101 100 98 97 99 96 87 80 71 98 101 98 89 98 96 85 92 98
125 133 138 140 136 133 137 120 121 115 113 108 102 96 92 85 89 95 95 89 89 98 106 107 107 96 95 89 88 92 98 89 82 79 93 111 130 90 97 114 121 112 117
126 131 138 141 127 132 134 125 121 118 115 105 94 89 84 78 79 80 89 94 92 93 109 108 107 96 93 86 78 83 98 90 88 94 94 102 89 87 87 111 121 113 97
127 130 132 134 130 132 131 128 124 122 118 99 86 78 75 76 76 71 73 86 94 101 111 110 106 100 95 87 82 81 103 102 91 96 95 75 62 80 84 88 93 112 111
128 136 134 135 138 141 132 125 120 117 115 101 76 69 73 67 72 68 71 73 81 95 105 111 107 98 97 91 87 82 91 96 117 101 79 75 18 47 73 81 96 98 88
128 142 140 140 149 142 129 154 126 124 121 101 72 70 68 70 67 67 63 59 64 74 92 115 119 110 96 88 70 84 85 86 121 59 136 354 2 27 41 74 83 98 110
119 126 128 139 148 145 160 142 118 151 175 203 64 76 50 59 61 28 51 50 45 43 48 51 93 132 113 76 35 91 59 358 76 44 194 337 346 11 31 29 66 122 178
129 126 126 144 146 147 150 151 152 151 138 135 86 95 65 97 118 74 20 29 35 26 39 44 25 15 69 292 306 36 3 39 256 348 256 327 358 6 15 18 360 338 249
129 134 138 139 136 149 157 158 165 176 162 160 162 132 225 117 38 27 16 14 4 20 11 15 13 27 272 263 264 285 331 264 305 277 321 321 319 339 355 357 352 337 322
138 137 149 157 155 167 171 175 194 202 156 249 199 200 189 80 17 91 277 38 14 360 341 241 329 245 287 271 270 263 254 275 310 322 287 316 311 311 322 319 328 324 314
137 142 143 150 166 156 177 184 215 257 204 239 274 245 275 118 247 319 268 307 286 254 259 312 298 283 239 281 277 267 264 259 276 286 297 302 311 310 312 300 303 297 295
149 150 160 164 175 169 170 192 215 231 267 298 264 274 298 274 250 227 275 254 282 315 293 278 260 244 262 262 269 271 265 264 260 266 276 289 299 301 308 296 292 291 277
161 161 168 172 180 188 195 218 229 224 243 243 259 256 286 285 292 288 284 281 252 274 309 302 307 294 297 293 275 276 282 276 254 240 257 264 272 288 291 288 296 285 278
170 175 178 176 186 193 203 209 211 230 236 252 257 261 273 285 286 273 286 280 286 288 284 290 298 287 274 265 277 288 255 261 273 263 254 258 260 254 285 287 287 287 281
180 182 185 188 193 200 208 211 228 237 241 241 253 261 265 265 260 267 268 273 282 275 279 282 282 277 277 284 273 273 274 267 266 267 267 264 266 258 255 267 279 280 280
187 192 194 198 198 205 209 223 222 240 252 256 256 260 259 266 268 268 267 268 275 292 284 271 261 267 275 272 270 264 253 255 259 261 265 266 265 270 272 264 265 273 277
192 195 200 203 212 209 218 222 234 237 245 250 263 259 261 267 262 259 262 270 278 284 293 293 280 276 279 276 273 285 283 291 275 261 256 261 265 265 265 262 262 260 259
196 201 205 208 212 218 217 223 222 245 252 263 259 263 264 265 268 271 270 269 266 264 268 271 276 268 273 272 263 272 277 281 277 269 254 257 267 266 264 267 253 260 259
201 203 206 214 219 225 212 236 239 247 257 258 240 266 282 264 282 282 278 275 273 274 270 272 273 272 269 266 262 259 277 277 307 270 252 263 260 253 261 263 256 252 260
205 206 207 216 216 217 216 212 230 236 264 281 318 307 272 292 288 295 293 291 292 289 286 285 278 278 275 271 268 268 263 260 278 267 266 268 268 268 269 267 261 255 249
201 204 207 215 221 219 232 217 233 254 261 286 296 317 331 322 328 327 312 315 311 305 298 304 297 286 281 279 275 273 269 267 260 255 269 267 270 267 266 267 272 268 270
198 200 203 211 216 217 220 232 235 220 225 221 266 319 325 330 320 301 307 311 319 312 308 300 294 295 292 285 280 277 271 269 267 263 258 271 271 279 276 267 261 261 258
Wind_Speed_850mb
35 41 48 51 55 60 62 63 57 55 54 54 56 53 46 41 41 41 39 38 35 38 40 38 36 33 32 30 33 37 32 33 32 31 31 31 33 36 39 37 30 18 21
38 41 49 55 56 61 64 56 51 51 53 55 53 46 39 33 34 35 35 33 34 34 33 31 35 30 28 29 32 34 32 35 37 36 32 32 30 28 28 31 29 22 22
37 42 46 54 62 62 57 53 58 60 59 55 49 40 36 35 35 35 31 31 32 32 30 30 33 36 33 35 31 31 34 49 48 42 41 24 25 28 27 22 17 23 21
38 43 48 61 59 55 56 58 60 56 50 45 40 39 37 35 35 32 28 28 29 29 30 31 34 34 33 31 29 28 34 38 33 25 24 23 16 25 23 21 21 21 19
39 42 52 58 62 55 58 56 55 49 45 43 43 40 36 34 34 30 29 28 25 27 30 33 35 34 34 30 27 26 37 41 37 30 25 24 14 17 23 24 21 20 24
40 44 51 57 55 58 54 50 49 46 49 47 46 43 39 37 34 30 29 25 24 26 30 30 34 32 31 27 25 26 34 34 32 19 27 17 17 13 17 21 13 13 12
47 49 54 51 50 51 48 44 43 46 46 43 40 38 35 34 33 31 28 25 26 24 30 30 26 22 22 22 20 21 26 30 23 17 15 11 11 13 11 12 15 13 12
52 48 42 55 58 42 45 40 38 38 37 34 35 33 31 31 29 28 28 26 22 22 25 23 20 19 17 18 19 22 24 26 21 16 15 8 12 11 12 11 9 12 13
44 46 46 51 61 44 51 37 33 35 33 27 26 26 28 28 27 28 26 25 21 15 15 15 14 14 13 14 19 22 25 30 21 14 11 5 14 10 10 9 7 6 7
43 43 44 47 67 62 43 33 33 23 19 11 13 18 20 26 26 26 24 20 19 15 12 11 10 9 10 13 13 18 23 19 11 7 14 9 12 9 7 6 6 4 5
43 49 49 49 57 59 49 45 26 12 8 1 6 15 25 16 11 19 14 16 17 16 14 8 3 5 7 14 12 11 13 6 11 3 6 13 12 9 8 6 3 2 2
34 43 43 47 53 46 47 31 28 14 3 5 7 19 11 5 11 9 18 22 19 21 18 20 20 5 4 5 7 5 16 7 7 4 9 14 11 10 10 8 6 3 2
40 40 38 46 36 44 40 31 26 17 16 4 5 11 9 5 6 7 12 16 17 16 14 16 20 13 4 7 5 11 10 7 9 12 14 19 16 10 9 8 8 7 6
38 37 36 35 38 30 36 29 21 17 7 1 5 7 10 5 11 2 3 3 14 7 12 2 3 10 8 8 12 14 11 13 17 18 15 19 20 13 13 11 8 9 10
39 35 29 32 25 28 22 13 5 7 3 5 13 9 5 2 5 4 6 5 7 6 4 6 9 8 13 10 12 15 17 18 18 17 21 24 23 21 20 15 15 13 12
35 34 32 31 30 34 25 20 24 18 14 12 6 17 20 9 12 8 7 5 12 19 13 7 9 12 14 13 16 18 19 21 20 21 21 28 26 29 28 26 23 21 17
34 32 29 28 28 28 23 19 18 16 14 15 12 17 20 14 15 14 9 11 6 14 22 15 15 11 14 15 18 20 23 27 29 30 23 27 27 34 35 29 31 32 27
32 32 28 27 27 25 22 20 17 16 13 14 14 15 17 19 17 15 14 14 19 17 18 19 20 19 19 20 25 24 22 24 30 29 31 33 33 25 35 38 40 38 38
34 33 31 28 25 24 22 17 16 15 15 16 17 18 19 19 18 18 16 18 29 18 22 21 20 25 25 27 22 24 27 26 29 30 34 37 39 41 36 37 43 45 49
35 33 33 30 29 27 23 22 18 17 16 15 15 16 19 17 19 19 16 21 32 28 25 23 26 27 29 29 30 32 38 34 33 33 35 35 37 42 38 39 41 45 44
35 35 34 33 32 30 27 24 21 18 19 18 18 17 21 20 21 25 23 24 25 29 34 36 36 33 30 27 28 29 33 28 33 38 35 35 36 37 40 43 47 42 38
37 37 37 36 35 31 27 25 24 19 18 20 20 19 22 24 25 27 32 29 28 33 33 37 37 33 34 30 36 34 32 30 34 32 23 26 33 36 41 46 42 48 48
40 41 38 36 34 33 32 25 25 24 25 27 25 17 22 25 25 35 31 34 38 38 37 42 39 39 37 35 39 39 24 33 29 17 27 31 32 35 34 37 38 44 50
41 37 38 36 35 32 28 26 26 22 19 23 27 12 24 26 25 30 31 33 34 37 40 41 43 42 42 40 40 45 50 47 37 37 40 38 36 44 48 45 49 49 47
38 39 39 40 39 35 32 28 25 19 13 9 9 14 20 20 28 25 21 24 30 30 35 40 41 43 48 51 47 46 45 46 46 55 57 65 47 48 55 55 53 44 42
38 38 37 39 38 35 34 29 24 29 21 11 7 8 11 16 18 18 18 23 42 40 37 39 42 44 46 48 51 55 55 53 46 44 49 67 58 54 47 51 54 55 55
Wind_Direction_850mb
119 122 125 127 127 127 127 127 124 124 125 125 125 123 118 108 102 103 106 104 100 104 106 105 101 99 96 90 90 94 100 100 104 106 103 101 102 103 99 94 77 106 103
121 125 132 130 129 128 128 127 125 124 122 122 122 120 112 106 103 106 107 100 98 100 99 104 105 106 110 102 103 103 96 93 89 84 86 95 104 112 104 111 135 104 99
127 131 136 132 129 132 130 126 124 121 118 117 116 113 107 104 103 107 104 101 101 103 101 100 96 100 99 98 98 92 93 94 89 86 87 82 99 103 112 123 104 95 102
131 136 136 133 131 129 128 125 124 122 116 114 111 108 104 101 103 108 101 98 103 99 100 103 103 103 101 101 98 97 96 96 85 81 109 89 88 93 97 96 93 90 87
129 136 137 137 135 129 131 122 123 119 114 111 109 105 100 99 97 100 97 97 96 97 102 107 104 101 100 98 97 99 96 87 80 71 98 101 98 89 98 96 85 92 98
125 133 138 140 136 133 137 120 121 115 113 108 102 96 92 85 89 95 95 89 89 98 106 107 107 96 95 89 88 92 98 89 82 79 93 111 130 90 97 114 121 112 117
126 131 138 141 127 132 134 125 121 118 115 105 94 89 84 78 79 80 89 94 92 93 109 108 107 96 93 86 78 83 98 90 88 94 94 102 89 87 87 111 121 113 97
127 130 132 134 130 132 131 128 124 122 118 99 86 78 75 76 76 71 73 86 94 101 111 110 106 100 95 87 82 81 103 102 91 96 95 75 62 80 84 88 93 112 111
128 136 134 135 138 141 132 125 120 117 115 101 76 69 73 67 72 68 71 73 81 95 105 111 107 98 97 91 87 82 91 96 117 101 79 75 18 47 73 81 96 98 88
128 142 140 140 149 142 129 154 126 124 121 101 72 70 68 70 67 67 63 59 64 74 92 115 119 110 96 88 70 84 85 86 121 59 136 354 2 27 41 74 83 98 110
119 126 128 139 148 145 160 142 118 151 175 203 64 76 50 59 61 28 51 50 45 43 48 51 93 132 113 76 35 91 59 358 76 44 194 337 346 11 31 29 66 122 178
129 126 126 144 146 147 150 151 152 151 138 135 86 95 65 97 118 74 20 29 35 26 39 44 25 15 69 292 306 36 3 39 256 348 256 327 358 6 15 18 360 338 249
129 134 138 139 136 149 157 158 165 176 162 160 162 132 225 117 38 27 16 14 4 20 11 15 13 27 272 263 264 285 331 264 305 277 321 321 319 339 355 357 352 337 322
138 137 149 157 155 167 171 175 194 202 156 249 199 200 189 80 17 91 277 38 14 360 341 241 329 245 287 271 270 263 254 275 310 322 287 316 311 311 322 319 328 324 314
137 142 143 150 166 156 177 184 215 257 204 239 274 245 275 118 247 319 268 307 286 254 259 312 298 283 239 281 277 267 264 259 276 286 297 302 311 310 312 300 303 297 295
149 150 160 164 175 169 170 192 215 231 267 298 264 274 298 274 250 227 275 254 282 315 293 278 260 244 262 262 269 271 265 264 260 266 276 289 299 301 308 296 292 291 277
161 161 168 172 180 188 195 218 229 224 243 243 259 256 286 285 292 288 284 281 252 274 309 302 307 294 297 293 275 276 282 276 254 240 257 264 272 288 291 288 296 285 278
170 175 178 176 186 193 203 209 211 230 236 252 257 261 273 285 286 273 286 280 286 288 284 290 298 287 274 265 277 288 255 261 273 263 254 258 260 254 285 287 287 287 281
180 182 185 188 193 200 208 211 228 237 241 241 253 261 265 265 260 267 268 273 282 275 279 282 282 277 277 284 273 273 274 267 266 267 267 264 266 258 255 267 279 280 280
187 192 194 198 198 205 209 223 222 240 252 256 256 260 259 266 268 268 267 268 275 292 284 271 261 267 275 272 270 264 253 255 259 261 265 266 265 270 272 264 265 273 277
192 195 200 203 212 209 218 222 234 237 245 250 263 259 261 267 262 259 262 270 278 284 293 293 280 276 279 276 273 285 283 291 275 261 256 261 265 265 265 262 262 260 259
196 201 205 208 212 218 217 223 222 245 252 263 259 263 264 265 268 271 270 269 266 264 268 271 276 268 273 272 263 272 277 281 277 269 254 257 267 266 264 267 253 260 259
201 203 206 214 219 225 212 236 239 247 257 258 240 266 282 264 282 282 278 275 273 274 270 272 273 272 269 266 262 259 277 277 307 270 252 263 260 253 261 263 256 252 260
205 206 207 216 216 217 216 212 230 236 264 281 318 307 272 292 288 295 293 291 292 289 286 285 278 278 275 271 268 268 263 260 278 267 266 268 268 268 269 267 261 255 249
201 204 207 215 221 219 232 217 233 254 261 286 296 317 331 322 328 327 312 315 311 305 298 304 297 286 281 279 275 273 269 267 260 255 269 267 270 267 266 267 272 268 270
198 200 203 211 216 217 220 232 235 220 225 221 266 319 325 330 320 301 307 311 319 312 308 300 294 295 292 285 280 277 271 269 267 263 258 271 271 279 276 267 261 261 258